This demonstration page uses our WeatherBlox Daily Observations layout. Learn more.

Left ArrowRight Arrow

38.89511, -77.03637

Hourly Observations for January 17, 2021

Temp ( °F °C ) Dew Point ( °F °C ) Humidity (%) Winds ( mph kmh ) Pressure ( in mb ) Visibility ( mi km ) Precip ( " mm )
12:52 am 00:52 Mostly Clear 34 1.1 24 -4.4 67 67 SSW 6 9 29.70 1006 10 16 0.00 0.00
1:52 am 01:52 Mostly Clear 34 1.1 23 -5 64 64 SW 9 15 29.71 1006 10 16 0.00 0.00
2:52 am 02:52 Mostly Cloudy 35 1.7 23 -5 61 61 WSW 9 15 29.74 1007 10 16 0.00 0.00
3:52 am 03:52 Cloudy 35 1.7 24 -4.4 64 64 SW 8 13 29.74 1007 10 16 0.00 0.00
4:52 am 04:52 Cloudy 36 2.2 24 -4.4 62 62 SSW 8 13 29.74 1007 10 16 0.00 0.00
5:52 am 05:52 Mostly Cloudy 36 2.2 23 -5 59 59 WSW 9 15 29.74 1007 10 16 0.00 0.00
6:52 am 06:52 Mostly Cloudy 35 1.7 24 -4.4 64 64 WSW 6 9 29.75 1008 10 16 0.00 0.00
7:52 am 07:52 Mostly Cloudy 36 2.2 25 -3.9 64 64 SW 7 11 29.77 1008 10 16 0.00 0.00
8:52 am 08:52 Mostly Cloudy 36 2.2 25 -3.9 64 64 SSW 8 13 29.81 1010 10 16 0.00 0.00
9:52 am 09:52 Mostly Cloudy 39 3.9 27 -2.8 62 62 SSW 8 13 29.83 1010 10 16 0.00 0.00
10:52 am 10:52 Mostly Cloudy 43 6.1 27 -2.8 53 53 WSW 10 17 29.81 1010 10 16 0.00 0.00
11:52 am 11:52 Mostly Cloudy 47 8.3 28 -2.2 48 48 SW 13 20 29.79 1009 10 16 0.00 0.00
12:52 pm 12:52 Mostly Cloudy 47 8.3 27 -2.8 46 46 SW 13 20 29.78 1008 10 16 0.00 0.00
1:52 pm 13:52 Mostly Cloudy 49 9.4 27 -2.8 43 43 WSW 14 22 29.76 1008 10 16 0.00 0.00
2:52 pm 14:52 Mostly Cloudy 47 8.3 27 -2.8 46 46 W 12 19 29.76 1008 10 16 0.00 0.00
3:52 pm 15:52 Cloudy 47 8.3 27 -2.8 46 46 SW 13 20 29.77 1008 10 16 0.00 0.00
4:52 pm 16:52 Cloudy 47 8.3 26 -3.3 44 44 WSW 12 19 29.77 1008 10 16 0.00 0.00
5:52 pm 17:52 Cloudy 46 7.8 28 -2.2 50 50 WSW 10 17 29.78 1009 10 16 0.00 0.00
6:52 pm 18:52 Cloudy 45 7.2 28 -2.2 52 52 SSW 9 15 29.78 1009 10 16 0.00 0.00
7:52 pm 19:52 Mostly Cloudy 43 6.1 29 -1.7 58 58 SSW 9 15 29.80 1009 10 16 0.00 0.00
8:52 pm 20:52 Partly Cloudy 41 5 29 -1.7 62 62 SSW 9 15 29.78 1008 10 16 0.00 0.00
9:52 pm 21:52 Cloudy 41 5 29 -1.7 62 62 SSW 8 13 29.78 1009 10 16 0.00 0.00
10:52 pm 22:52 Cloudy 40 4.4 29 -1.7 65 65 SSW 7 11 29.77 1008 10 16 0.00 0.00
11:52 pm 23:52 Partly Cloudy 39 3.9 28 -2.2 65 65 SSW 7 11 29.78 1008 10 16 0.00 0.00

Powered by AerisWeather